This demonstration page uses our WeatherBlox Daily Observations layout. Learn more.

Left ArrowRight Arrow

Hourly Observations for September 4, 2018

Temp ( °F °C ) Dew Point ( °F °C ) Humidity (%) Winds ( mph kmh ) Pressure ( in mb ) Visibility ( mi km ) Precip ( " mm )
1:57 am 01:57 Mostly Clear 66 18.9 65 18.3 96 96 S 3 6 29.98 1015 10 16 0.00 0.00
2:44 am 02:44 Cloudy 66 19 64 18 94 94 SSE 3 6 29.97 1015 10 16 0.00 0.00
2:57 am 02:57 Cloudy 67 19.4 65 18.3 93 93 SE 3 6 29.97 1015 10 16 0.00 0.00
3:28 am 03:28 Cloudy 68 20 66 19 94 94 SSE 12 19 29.94 1014 10 16 0.00 0.00
3:57 am 03:57 Cloudy 68 20 66 18.9 93 93 S 7 11 29.96 1015 10 16 0.00 0.00
4:40 am 04:40 Cloudy 68 20 66 19 94 94 SE 7 11 29.91 1013 10 16 0.01 0.25
4:57 am 04:57 Cloudy 68 20 67 19.4 96 96 SE 8 13 29.96 1015 10 16 0.01 0.25
5:57 am 05:57 Cloudy 68 20 67 19.4 96 96 SSE 6 9 29.96 1014 10 16 0.00 0.00
6:57 am 06:57 Cloudy 68 20 68 20 100 100 SSE 5 7 29.96 1015 10 16 0.00 0.00
7:08 am 07:08 Cloudy with Mist and Fog 68 20 68 20 100 100 SE 6 9 29.91 1013 5 8 0.00 0.00
7:57 am 07:57 Cloudy 69 20.6 68 20 96 96 SSE 3 6 29.95 1014 10 16 0.00 0.00
8:57 am 08:57 Cloudy 69 20.6 68 20 96 96 S 3 6 29.96 1015 10 16 0.00 0.00
9:29 am 09:29 Cloudy 70 21 68 20 94 94 S 5 7 29.91 1013 10 16 0.00 0.00
9:57 am 09:57 Cloudy 71 21.7 69 20.6 94 94 S 5 7 29.96 1015 10 16 0.00 0.00
10:31 am 10:31 Mostly Cloudy 72 22 70 21 94 94 S 5 7 29.91 1013 10 16 0.00 0.00
10:57 am 10:57 Mostly Cloudy 73 22.8 68 20 84 84 SSW 6 9 29.96 1015 10 16 0.00 0.00
11:26 am 11:26 Mostly Cloudy 73 23 70 21 89 89 SSE 6 9 29.91 1013 10 16 0.00 0.00
11:46 am 11:46 Partly Cloudy 75 24 70 21 83 83 SSE 5 7 29.88 1012 10 16 0.00 0.00
11:57 am 11:57 Mostly Cloudy 75 23.9 68 20 79 79 S 3 6 29.96 1015 10 16 0.00 0.00
12:54 pm 12:54 Mostly Cloudy 75 24 68 20 78 78 Calm 29.88 1012 10 16 0.00 0.00
12:57 pm 12:57 Partly Cloudy 77 25 68 20 74 74 Calm 29.95 1014 10 16 0.00 0.00
1:21 pm 13:21 Mostly Cloudy 79 26 68 20 70 70 Calm 29.88 1012 10 16 0.00 0.00
1:57 pm 13:57 Cloudy 79 26.1 68 20 69 69 Calm 29.93 1014 10 16 0.00 0.00
2:42 pm 14:42 Partly Cloudy 81 27 68 20 66 66 SW 3 6 29.83 1010 10 16 0.00 0.00
2:57 pm 14:57 Mostly Sunny 80 26.7 68 20 67 67 SSW 5 7 29.92 1013 10 16 0.00 0.00
3:57 pm 15:57 Mostly Sunny 82 27.8 68 20 63 63 S 7 11 29.89 1012 10 16 0.00 0.00
5:57 pm 17:57 Sunny 80 26.7 68 20 67 67 S 10 17 29.89 1012 10 16 0.00 0.00
6:57 pm 18:57 Mostly Cloudy 79 26.1 68 20 69 69 S 7 11 29.91 1013 10 16 0.00 0.00
7:57 pm 19:57 Mostly Cloudy with Light Rain 77 25 69 20.6 77 77 Calm 29.91 1013 10 16 0.00 0.03
8:22 pm 20:22 Cloudy with Nearby Thunderstorms 70 21 64 18 83 83 N 20 31 29.91 1013 10 16 0.00 0.03
8:30 pm 20:30 Cloudy with Light Rain 68 20 64 18 88 88 NNW 16 26 29.91 1013 10 16 0.00 0.03
8:39 pm 20:39 Cloudy with Light Rain 66 19 64 18 94 94 NNW 12 19 29.97 1015 9 14 0.00 0.00
8:57 pm 20:57 Cloudy with Nearby Thunderstorms 67 19.4 64 17.8 91 91 NNW 14 22 29.98 1015 10 16 0.11 2.79
9:14 pm 21:14 Cloudy with Light Rain 66 19 64 18 94 94 NNW 12 19 29.97 1015 10 16 0.00 0.03
9:57 pm 21:57 Cloudy with Thunderstorms 66 18.9 65 18.3 96 96 NNW 6 9 30.02 1017 10 16 0.06 1.52
10:31 pm 22:31 Cloudy with Rain 66 19 64 18 94 94 N 8 13 30.00 1016 9 14 0.00 0.00
10:43 pm 22:43 Cloudy with Light Rain 66 19 66 19 100 100 NNE 6 9 30.03 1017 10 16 0.23 5.84
10:57 pm 22:57 Cloudy with Rain 67 19.4 66 18.9 97 97 NNE 5 7 30.04 1017 10 16 0.28 7.11
11:01 pm 23:01 Cloudy with Rain 66 19 66 19 100 100 NNE 5 7 30.03 1017 10 16 0.00 0.00
11:57 pm 23:57 Cloudy with Light Rain 67 19.4 66 18.9 97 97 NNW 3 6 30.02 1017 10 16 0.19 4.83

Powered by AerisWeather